Powrót do katalogu

NOAA 11 DEB

AktywnySSO
NORAD 37242·DEBRIS·🇺🇸 United States

Wystrzelony Sep 24, 1988 z Vandenberg Space Force Base

Loading…

Następne Przeloty (najbliższe 24 godziny)

TLE

ŚwieżeSource: Space-Track

Epoka: Sep 14, 2026, 07:20 UTC

1 37242U 88089E   26257.30586972  .00002241  00000-0  85985-3 0  9990
2 37242  98.5305 232.0897 0011473 206.0186 154.0422 14.31452909962496

Śledź NOAA 11 DEB w czasie rzeczywistym z AllMySat

Download on the App Store